Toronto City, Ontario

10:19 AM EDT on October 23, 2017 (GMT -0400)
Toronto City

Weather History for CXTO - November, 2012

Change the Weather History Date:

Wednesday, November 14, 2012

  Actual Average (CYTZ) Record (CYTZ)
Temperature  
Mean Temperature 40 °F -  
Max Temperature 44 °F 43 °F 60 °F (2007)
Min Temperature 36 °F 34 °F 24 °F (1996)
Degree Days  
Heating Degree Days 25    
Moisture  
Dew Point 28 °F    
Average Humidity 63    
Maximum Humidity 72    
Minimum Humidity 39    
Precipitation  
Precipitation 0.03 in - - ()
Sea Level Pressure  
Sea Level Pressure 30.58 in    
Wind  
Wind Speed - ()    
Max Wind Speed -    
Max Gust Speed -    
Averages and records for this station are not official NWS values.
T = Trace of Precipitation, MM = Missing Value Source: Averaged Metar Reports

Daily Weather History Graph

Daily Weather History Graph

Search for Another Location

Airport or City:

Trip Planner

Search our weather history database for the weather conditions in past years. The results will help you decide how hot, cold, wet, or windy it might be!

Date:

Astronomy

Nov. 14, 2012 Rise Set
Actual Time 7:11 AM EST 4:52 PM EST
Civil Twilight 6:40 AM EST 5:23 PM EST
Nautical Twilight 6:05 AM EST 5:58 PM EST
Astronomical Twilight 5:31 AM EST 6:32 PM EST
Moon 8:00 AM EST (11/14) 5:37 PM EST (11/14)
Length of Visible Light 10h 43m
Length of Day
9h 41m
New Moon, 1% of the Moon is Illuminated
Nov 14
New Moon
Nov 20
First Quarter
Nov 28
Full
Dec 6
Last Quarter
Dec 13
New

Hourly Weather History & Observations

Time (EST) Temp. Dew Point Humidity Pressure Visibility Wind Dir Wind Speed Gust Speed Precip Events Conditions
12:00 AM 36.3 °F 27.3 °F 70% 30.58 in - North - - N/A   Unknown
1:00 AM 36 °F 28 °F 62% 30.57 in - Calm Calm - -  
1:00 AM 36.1 °F 27.7 °F 71% 30.57 in - North - - N/A   Unknown
2:00 AM 36.3 °F 27.9 °F 71% 30.58 in - North - - N/A   Unknown
3:00 AM 36.3 °F 28.0 °F 72% 30.58 in - North - - N/A   Unknown
4:00 AM 36.3 °F 27.9 °F 71% 30.58 in - North - - N/A   Unknown
5:00 AM 36.7 °F 28.6 °F 72% 30.60 in - North - - N/A   Unknown
6:00 AM 36.5 °F 28.0 °F 71% 30.61 in - North - - N/A   Unknown
7:00 AM 37 °F 28 °F 61% 30.62 in - Calm Calm - -  
7:00 AM 36.7 °F 28.4 °F 72% 30.62 in - North - - N/A   Unknown
8:00 AM 37.4 °F 28.2 °F 69% 30.63 in - North - - N/A   Unknown
9:00 AM 40.1 °F 26.4 °F 58% 30.63 in - North - - 0.03 in   Unknown
10:00 AM 41.0 °F 26.4 °F 56% 30.63 in - North - - N/A   Unknown
11:00 AM 43.7 °F 27.3 °F 53% 30.63 in - North - - N/A   Unknown
12:00 PM 43.3 °F 28.0 °F 55% 30.62 in - North - - N/A   Unknown
1:00 PM 44 °F 27 °F 39% 30.59 in - Calm Calm - -  
1:00 PM 44.4 °F 27.3 °F 51% 30.59 in - North - - N/A   Unknown
2:00 PM 42.6 °F 27.1 °F 54% 30.59 in - North - - N/A   Unknown
3:00 PM 41.5 °F 28.4 °F 60% 30.57 in - North - - N/A   Unknown
4:00 PM 41.2 °F 27.7 °F 59% 30.57 in - North - - N/A   Unknown
5:00 PM 40.5 °F 27.5 °F 60% 30.56 in - North - - N/A   Unknown
6:00 PM 40.3 °F 28.6 °F 63% 30.56 in - North - - N/A   Unknown
7:00 PM 40 °F 30 °F 56% 30.55 in - Calm Calm - -  
7:00 PM 40.5 °F 29.7 °F 65% 30.55 in - North - - N/A   Unknown
8:00 PM 40.6 °F 30.0 °F 66% 30.55 in - North - - N/A   Unknown
9:00 PM 40.6 °F 30.4 °F 67% 30.53 in - North - - N/A   Unknown
10:00 PM 40.8 °F 30.7 °F 67% 30.53 in - North - - N/A   Unknown
11:00 PM 41.4 °F 30.9 °F 66% 30.51 in - North - - N/A   Unknown